DW7933 Weather Reports


time (UTC)temp
C
wind
direction
speed
KPH
gust
KPH
rain 1hr
cm
rain 24hr
cm
rain mn
cm
humidity
%
barometer
mb
20260505004521 20 149 0.0 0.0 0.00 0.00 0.00 70 1014.2
20260505003012 21 149 0.0 0.0 0.00 0.00 0.00 63 1014.1
20260505001551 23 149 0.0 0.0 0.00 0.00 0.00 61 1014.0
20260505000057 25 150 0.0 0.0 0.00 0.00 0.00 59 1014.1
20260504234524 25 150 0.0 0.0 0.00 0.00 0.00 57 1014.0
20260504233020 26 148 0.0 0.0 0.00 0.00 0.00 55 1014.0
20260504231559 27 159 0.0 0.0 0.00 0.00 0.00 49 1013.8
20260504224532 27 170 0.0 0.0 0.00 0.00 0.00 46 1014.0
20260504223028 27 160 0.0 0.0 0.00 0.00 0.00 45 1014.1
20260504221507 27 146 0.0 0.0 0.00 0.00 0.00 43 1014.1
20260504220002 27 248 0.0 0.0 0.00 0.00 0.00 44 1014.1
20260504214547 27 142 0.0 0.0 0.00 0.00 0.00 45 1014.1
20260504213040 27 188 0.0 6.4 0.00 0.00 0.00 48 1014.0
20260504211525 27 170 1.6 6.4 0.00 0.00 0.00 46 1014.1
20260504210011 26 119 3.2 11.3 0.00 0.00 0.00 47 1014.3
20260504204552 27 174 3.2 11.3 0.00 0.00 0.00 45 1014.6
20260504203047 26 262 1.6 11.3 0.00 0.00 0.00 47 1014.6
20260504201524 27 181 0.0 0.0 0.00 0.00 0.00 48 1014.9
20260504200021 27 337 0.0 12.9 0.00 0.00 0.00 46 1015.1
20260504194506 27 257 3.2 8.0 0.00 0.00 0.00 48 1015.4
20260504193118 26 306 0.0 14.5 0.00 0.00 0.00 47 1015.5
20260504191601 26 101 4.8 9.7 0.00 0.00 0.00 48 1015.7
20260504190112 26 305 0.0 8.0 0.00 0.00 0.00 49 1016.0
20260504184603 26 167 6.4 12.9 0.00 0.00 0.00 52 1016.1
20260504183043 25 133 0.0 11.3 0.00 0.00 0.00 54 1016.3
20260504181539 25 5 0.0 6.4 0.00 0.00 0.00 56 1016.4
20260504180033 25 329 0.0 0.0 0.00 0.00 0.00 55 1016.6
20260504174511 24 160 6.4 12.9 0.00 0.00 0.00 53 1016.9
20260504173006 24 319 4.8 14.5 0.00 0.00 0.00 53 1017.1
20260504171546 25 219 8.0 12.9 0.00 0.00 0.00 52 1017.1
20260504140111 18 150 0.0 0.0 0.00 0.00 0.00 68 1018.5
20260504081542 6 19 0.0 0.0 0.00 0.00 0.00 11 1018.2
20260504050001 9 19 0.0 0.0 0.00 0.00 0.00 11 1019.2
20260504044557 9 19 0.0 0.0 0.00 0.00 0.00 11 1019.0
20260504043035 9 19 0.0 0.0 0.00 0.00 0.00 11 1018.9
20260504041530 10 19 0.0 0.0 0.00 0.00 0.00 11 1019.0
20260504040008 10 19 0.0 0.0 0.00 0.00 0.00 11 1018.9
20260504034505 10 19 0.0 0.0 0.00 0.00 0.00 11 1018.9
20260504033051 11 19 0.0 0.0 0.00 0.00 0.00 11 1018.9
20260504031538 11 19 0.0 0.0 0.00 0.00 0.00 11 1019.0
20260504030018 11 19 0.0 0.0 0.00 0.00 0.00 11 1018.9
20260504024534 11 19 0.0 0.0 0.00 0.00 0.00 11 1018.9
20260504023051 11 19 0.0 0.0 0.00 0.00 0.00 11 1018.8
20260504021552 12 19 0.0 0.0 0.00 0.00 0.00 11 1018.7
20260504020026 12 19 0.0 0.0 0.00 0.00 0.00 11 1018.6
20260504014520 12 19 0.0 0.0 0.00 0.00 0.00 32 1018.3
20260504013109 13 19 0.0 0.0 0.00 0.00 0.00 46 1018.2
20260504011554 14 19 0.0 0.0 0.00 0.00 0.00 61 1017.9
20260504010032 15 19 0.0 0.0 0.00 0.00 0.00 70 1017.6